Regional Weather Roundup
Issued by NWS

Home | Current Version | Previous Version | Graphics & Text | Print | Product List | Glossary On
Versions: 1 2 3 4 5 6 7 8 9 10 11 12 13 14 15 16 17 18 19 20 21 22 23 24 25 26 27 28 29 30 31 32 33 34 35 36 37 38 39 40 41 42 43 44 45 46 47 48 49 50
000
ASUS43 KDTX 291501
RWRMI
MICHIGAN HOURLY REGIONAL WEATHER ROUNDUP
NATIONAL WEATHER SERVICE DETROIT/PONTIAC MI
1100 AM EDT SAT AUG 29 2015

NOTE: "FAIR" INDICATES FEW OR NO CLOUDS BELOW 12,000 FEET WITH NO
SIGNIFICANT WEATHER AND/OR OBSTRUCTION TO VISIBILITY.

MIZ047>049-052>055-059>063-066>070-074>076-081>083-291600-
SOUTHEAST LOWER MICHIGAN

CITY           SKY/WX    TMP DP  RH WIND       PRES   REMARKS
ADRIAN         CLOUDY    72  60  66 SE3       30.13F
ALMA           LGT RAIN  63  62  97 CALM      30.14S
ANN ARBOR      PTSUNNY   73  59  61 S3        30.13S
BAD AXE        LGT RAIN  63  60  90 S3        30.15S
CARO           CLOUDY    63  62  97 E5        30.13F FOG
DETROIT CITY   PTSUNNY   74  62  66 SE6       30.14S
DETROIT        PTSUNNY   74  61  63 S5        30.14S
FLINT          LGT RAIN  68  63  84 SE10      30.13F
GROSSE ILE     PTSUNNY   72  64  78 S5        30.13S
HILLSDALE      PTSUNNY   71  63  76 CALM      30.12F
HOWELL         CLOUDY    69  61  76 SE7       30.12F

CITY           SKY/WX    TMP DP  RH WIND       PRES   REMARKS
JACKSON        CLOUDY    68  60  75 SE8       30.12F
LAMBERTVILLE   CLOUDY    72  60  65 CALM      30.13S
LANSING        LGT RAIN  65  62  90 SE3       30.13R FOG
LAPEER         FAIR      66  64  94 CALM      30.16S
MASON          RAIN      65  61  85 CALM      30.13R
MONROE         PTSUNNY   73  60  65 CALM      30.13S
MT. CLEMENS    PTSUNNY   69  63  83 E8        30.14R
PONTIAC        CLOUDY    70  62  76 SE6       30.14S
PORT HOPE        N/A     65  61  87 SE3       30.13R
PORT HURON     CLOUDY    68  64  88 E5        30.16S
TRI CITIES     LGT RAIN  65  62  90 SE6       30.13F
MIDLAND        CLOUDY    63  60  91 CALM      30.12S
TROY           PTSUNNY   70  64  80 NE6       30.16S
SAGINAW HB     LGT RAIN  63  63 100 SE7       30.12F
$$
MIZ043>046-050>051-056>058-064>065-071>073-077>080-291600-
SOUTHWEST LOWER MICHIGAN

CITY           SKY/WX    TMP DP  RH WIND       PRES   REMARKS
BATTLE CREEK   LGT RAIN  64  61  90 CALM      30.13R FOG
BENTON HARBOR  HVY RAIN  63  61  93 SE8       30.08F FOG
BIG RAPIDS     CLOUDY    62  60  93 SE3       30.11F
COLDWATER      CLOUDY    67  62  84 CALM      30.12R
FREMONT        DRIZZLE   62  62 100 SE5       30.09F
HOLLAND        LGT RAIN  64  62  93 SE6       30.10F
GRAND RAPIDS   LGT RAIN  63  63 100 E6        30.12S FOG
IONIA          LGT RAIN  64  63  99 CALM      30.12S
KALAMAZOO      LGT RAIN  64  61  90 CALM      30.12S
LUDINGTON      CLOUDY    66  62  87 SE9       30.09S
MARSHALL       LGT RAIN  64  62  93 CALM      30.12R
MOUNT PLEASANT CLOUDY    64  61  91 SE5       30.12S
MUSKEGON       CLOUDY    63  60  90 SE8       30.09F FOG
SOUTH HAVEN    RAIN      63  62  94 CALM      30.10R
$$
MIZ016>042-291600-
NORTHERN LOWER MICHIGAN

CITY           SKY/WX    TMP DP  RH WIND       PRES   REMARKS
ALPENA         LGT RAIN  64  60  87 NW6       30.12F
BEAVER ISLAND  CLOUDY    64  60  88 SW7       30.09R
BELLAIRE       CLOUDY    63  60  92 CALM      30.10F
CADILLAC       CLOUDY    62  59  92 E8        30.11F
CHARLEVOIX     CLOUDY    63  61  94 CALM      30.13S
FRANKFORT      CLOUDY    64  62  93 SE7       30.08F
GAYLORD        CLOUDY    63  61  93 S5        30.12R
GRAYLING       CLOUDY    59  57  94 CALM      30.14R
HARBOR SPRINGS CLOUDY    62  60  93 SW5       30.10F
HOUGHTON LAKE  CLOUDY    59  57  93 E3        30.14S
MANISTEE       CLOUDY    63  59  88 E7        30.09F
OSCODA         CLOUDY    64  57  78 CALM      30.13R
PELLSTON       CLOUDY    64  60  87 VRB3      30.10F
ROGERS CITY    RAIN      62  60  93 CALM      30.12S
TRAVERSE CITY  CLOUDY    65  60  84 SE3       30.09S
$$
MIZ007>008-015-291600-
EASTERN UPPER MICHIGAN

CITY           SKY/WX    TMP DP  RH WIND       PRES   REMARKS
KINROSS        PTSUNNY   64  61  88 SW7       30.07S
MACKINAC ISLAN CLOUDY    65  61  87 SW9       30.09S
NEWBERRY       PTSUNNY   67  58  74 SW13G21   30.07S
S. S. MARIE    CLOUDY    63  58  83 CALM      30.07R
$$
MIZ004>006-011>014-085-291600-
CENTRAL UPPER MICHIGAN

CITY           SKY/WX    TMP DP  RH WIND       PRES   REMARKS
MANISTIQUE     MOSUNNY   66  60  81 SW8       30.08S
ESCANABA       MOSUNNY   64  57  77 SE9       30.06S
MENOMINEE      PTSUNNY   64  57  77 S6        30.06S
SAWYER-GWINN   CLOUDY    66  55  68 SW9       30.06R
$$
MIZ001>003-009>011-084-291600-
WESTERN UPPER MICHIGAN

CITY           SKY/WX    TMP DP  RH WIND       PRES   REMARKS
IRON MOUNTAIN  PTSUNNY   67  58  72 SW5       30.06R
HOUGHTON       MOSUNNY   66  57  72 W14       30.02S
COPPER HARBOR    N/A     69  58  67 VRB3      30.00S
IRONWOOD       SUNNY     64  57  77 SW7       30.02S
$$

ABBREVIATIONS USED IN REMARKS
   TC - TEMPERATURE IN CELSIUS
  WCI - WIND CHILL INDEX
   HX - HEAT INDEX
  VSB - VISIBILITY



USA.gov is the U.S. government's official web portal to all federal, state and local government web resources and services.